User: anonymous   Login
Location: Berg
(47.2344°N, 9.5296°E)
Time: 14:20:54
(UTC+00:00)
Language:

Nauka - Orbit

View from above orbital plane
View from above orbital plane
View from above satellite
View from above satellite

Ground track
Ground track

The orbit data is extracted from the following two-line orbital elements,

1 49044U 21066A   21293.53902148 -.00000952  00000-0 -92062-5 0  9997
2 49044  51.6417  82.9102 0004123 125.5872 323.5098 15.48739739308028
Epoch (UTC): 20 October 2021 12:56:11
Eccentricity: 0.0004123
inclination: 51.6417°
perigee height: 417 km
apogee height: 423 km
right ascension of ascending node: 82.9102°
argument of perigee: 125.5872°
revolutions per day: 15.48739739
mean anomaly at epoch: 323.5098°
orbit number at epoch: 30802

The dashed part of the orbit path shows where the satellite is in the earth's shadow,  

DLR